Total_Precipitation_Accumulation
0.00 0.00 0.00 0.00 0.00 0.00 0.00 0.00 0.00 0.00 0.00 0.00 0.00 0.00 0.00 0.00 0.00 0.00 0.00 0.00 0.03 0.09 0.17 0.13 0.12 0.19 0.15 0.12 0.21 0.21 0.21 0.21 0.27 0.33 0.31 0.31 0.50 0.69 0.70 0.59 0.51 0.44 0.40
0.00 0.00 0.00 0.00 0.00 0.00 0.00 0.00 0.00 0.00 0.00 0.00 0.00 0.00 0.00 0.00 0.00 0.00 0.00 0.00 0.01 0.02 0.04 0.06 0.09 0.14 0.15 0.14 0.16 0.21 0.18 0.13 0.15 0.21 0.21 0.19 0.16 0.27 0.41 0.45 0.31 0.24 0.19
0.00 0.00 0.00 0.00 0.00 0.00 0.00 0.00 0.00 0.00 0.00 0.00 0.00 0.00 0.00 0.00 0.00 0.00 0.00 0.00 0.00 0.00 0.03 0.06 0.10 0.11 0.16 0.15 0.14 0.19 0.22 0.18 0.12 0.14 0.21 0.12 0.04 0.03 0.03 0.06 0.10 0.11 0.11
0.00 0.00 0.00 0.00 0.00 0.00 0.00 0.00 0.00 0.00 0.00 0.00 0.00 0.00 0.00 0.00 0.00 0.00 0.00 0.00 0.00 0.00 0.02 0.07 0.13 0.13 0.16 0.17 0.16 0.18 0.21 0.23 0.22 0.17 0.15 0.13 0.10 0.07 0.04 0.04 0.04 0.03 0.03
0.00 0.00 0.00 0.00 0.00 0.00 0.00 0.00 0.00 0.00 0.00 0.00 0.00 0.00 0.00 0.00 0.00 0.00 0.00 0.00 0.00 0.00 0.00 0.02 0.08 0.13 0.16 0.19 0.26 0.26 0.21 0.20 0.26 0.24 0.22 0.24 0.31 0.28 0.19 0.11 0.04 0.02 0.02
0.00 0.00 0.00 0.00 0.00 0.00 0.00 0.00 0.00 0.00 0.00 0.00 0.00 0.00 0.00 0.00 0.00 0.00 0.00 0.00 0.00 0.00 0.00 0.02 0.03 0.06 0.10 0.16 0.23 0.29 0.31 0.26 0.25 0.25 0.24 0.20 0.20 0.25 0.31 0.33 0.24 0.20 0.12
0.00 0.00 0.00 0.00 0.00 0.00 0.00 0.00 0.00 0.00 0.00 0.00 0.00 0.00 0.00 0.00 0.00 0.00 0.00 0.00 0.00 0.00 0.00 0.01 0.02 0.04 0.05 0.09 0.16 0.24 0.30 0.32 0.24 0.19 0.17 0.20 0.20 0.21 0.22 0.21 0.16 0.14 0.10
0.00 0.00 0.00 0.00 0.00 0.00 0.00 0.00 0.00 0.00 0.00 0.00 0.00 0.00 0.00 0.00 0.00 0.00 0.00 0.00 0.00 0.00 0.00 0.00 0.02 0.04 0.09 0.12 0.13 0.16 0.20 0.27 0.34 0.31 0.20 0.15 0.12 0.16 0.20 0.22 0.24 0.23 0.14
0.00 0.00 0.01 0.01 0.01 0.02 0.02 0.01 0.01 0.00 0.00 0.00 0.00 0.00 0.00 0.00 0.00 0.00 0.00 0.00 0.00 0.00 0.00 0.00 0.01 0.03 0.07 0.11 0.15 0.16 0.19 0.22 0.21 0.25 0.29 0.29 0.26 0.30 0.33 0.37 0.40 0.48 0.49
0.12 0.13 0.12 0.08 0.06 0.06 0.05 0.03 0.02 0.01 0.00 0.00 0.00 0.00 0.00 0.00 0.00 0.00 0.00 0.00 0.00 0.00 0.00 0.00 0.00 0.01 0.05 0.10 0.12 0.13 0.13 0.21 0.25 0.23 0.20 0.19 0.21 0.25 0.33 0.43 0.49 0.57 0.63
0.30 0.31 0.25 0.16 0.14 0.13 0.11 0.06 0.05 0.03 0.01 0.00 0.00 0.00 0.00 0.00 0.00 0.00 0.00 0.00 0.00 0.00 0.00 0.00 0.00 0.00 0.01 0.05 0.08 0.09 0.11 0.12 0.11 0.14 0.15 0.14 0.19 0.17 0.17 0.20 0.26 0.37 0.47
0.25 0.22 0.24 0.15 0.09 0.10 0.09 0.05 0.02 0.04 0.02 0.01 0.00 0.00 0.00 0.00 0.00 0.00 0.00 0.00 0.00 0.00 0.00 0.00 0.00 0.00 0.00 0.03 0.09 0.11 0.11 0.11 0.11 0.12 0.12 0.12 0.15 0.15 0.17 0.19 0.19 0.21 0.24
0.13 0.09 0.04 0.03 0.01 0.02 0.04 0.04 0.03 0.02 0.01 0.02 0.03 0.01 0.01 0.00 0.00 0.00 0.00 0.00 0.00 0.00 0.00 0.00 0.00 0.00 0.00 0.00 0.04 0.08 0.12 0.11 0.09 0.11 0.13 0.10 0.13 0.13 0.13 0.16 0.14 0.13 0.14
0.01 0.00 0.00 0.01 0.00 0.00 0.00 0.02 0.03 0.01 0.00 0.06 0.09 0.01 0.03 0.02 0.03 0.03 0.01 0.00 0.01 0.00 0.00 0.01 0.01 0.01 0.01 0.01 0.02 0.06 0.13 0.10 0.10 0.11 0.10 0.11 0.12 0.14 0.15 0.17 0.19 0.21 0.29
0.00 0.00 0.00 0.00 0.00 0.00 0.00 0.01 0.01 0.00 0.00 0.02 0.03 0.01 0.02 0.03 0.07 0.11 0.13 0.06 0.04 0.06 0.08 0.07 0.06 0.05 0.06 0.04 0.05 0.05 0.06 0.11 0.16 0.18 0.17 0.14 0.15 0.21 0.22 0.21 0.23 0.37 0.51
0.00 0.00 0.00 0.00 0.00 0.00 0.00 0.00 0.00 0.00 0.00 0.01 0.02 0.01 0.01 0.00 0.01 0.04 0.05 0.07 0.07 0.08 0.08 0.11 0.12 0.13 0.09 0.10 0.08 0.06 0.05 0.06 0.07 0.07 0.10 0.13 0.15 0.16 0.20 0.20 0.25 0.31 0.35
0.00 0.00 0.00 0.00 0.00 0.00 0.00 0.00 0.00 0.00 0.00 0.00 0.00 0.01 0.01 0.00 0.00 0.00 0.00 0.00 0.00 0.01 0.03 0.06 0.04 0.03 0.03 0.07 0.07 0.11 0.09 0.10 0.09 0.09 0.07 0.06 0.08 0.12 0.12 0.20 0.21 0.21 0.29
0.00 0.00 0.00 0.00 0.00 0.00 0.00 0.00 0.00 0.00 0.00 0.00 0.00 0.00 0.01 0.00 0.01 0.02 0.01 0.01 0.00 0.01 0.06 0.02 0.02 0.03 0.05 0.06 0.07 0.08 0.04 0.05 0.04 0.05 0.07 0.08 0.09 0.14 0.15 0.13 0.16 0.18 0.22
0.00 0.00 0.00 0.00 0.00 0.00 0.00 0.00 0.00 0.00 0.00 0.00 0.00 0.00 0.00 0.00 0.01 0.07 0.07 0.04 0.01 0.07 0.15 0.12 0.10 0.16 0.19 0.33 0.36 0.35 0.29 0.14 0.09 0.12 0.14 0.13 0.11 0.21 0.19 0.09 0.10 0.13 0.13
0.00 0.00 0.00 0.00 0.00 0.00 0.00 0.00 0.00 0.00 0.00 0.00 0.00 0.00 0.00 0.00 0.00 0.01 0.03 0.03 0.05 0.13 0.25 0.26 0.21 0.24 0.22 0.28 0.37 0.42 0.38 0.22 0.15 0.12 0.14 0.20 0.14 0.19 0.17 0.11 0.13 0.15 0.15
0.00 0.00 0.00 0.00 0.00 0.00 0.00 0.00 0.00 0.00 0.00 0.00 0.00 0.00 0.00 0.00 0.00 0.01 0.01 0.02 0.04 0.06 0.09 0.12 0.13 0.13 0.15 0.17 0.22 0.30 0.33 0.34 0.26 0.21 0.18 0.19 0.26 0.25 0.29 0.29 0.27 0.31 0.30
0.00 0.00 0.00 0.00 0.00 0.00 0.00 0.00 0.00 0.00 0.00 0.00 0.00 0.00 0.00 0.00 0.00 0.00 0.00 0.00 0.00 0.00 0.00 0.00 0.00 0.00 0.01 0.01 0.03 0.03 0.02 0.03 0.05 0.07 0.08 0.09 0.11 0.09 0.08 0.07 0.07 0.06 0.03
0.00 0.00 0.00 0.00 0.00 0.00 0.00 0.00 0.00 0.00 0.00 0.00 0.00 0.00 0.00 0.00 0.00 0.00 0.00 0.00 0.00 0.00 0.00 0.00 0.00 0.00 0.00 0.00 0.00 0.01 0.00 0.00 0.00 0.00 0.00 0.00 0.00 0.00 0.00 0.00 0.00 0.00 0.00
0.00 0.00 0.00 0.00 0.00 0.00 0.00 0.00 0.00 0.00 0.00 0.00 0.00 0.00 0.00 0.00 0.00 0.00 0.00 0.00 0.00 0.00 0.00 0.00 0.00 0.00 0.00 0.00 0.00 0.00 0.00 0.00 0.00 0.00 0.00 0.00 0.00 0.00 0.00 0.00 0.00 0.00 0.00
0.00 0.00 0.00 0.00 0.00 0.00 0.00 0.00 0.00 0.00 0.00 0.00 0.00 0.00 0.00 0.00 0.00 0.00 0.00 0.00 0.00 0.00 0.00 0.00 0.00 0.00 0.00 0.00 0.00 0.00 0.00 0.00 0.00 0.00 0.00 0.00 0.00 0.00 0.00 0.00 0.00 0.00 0.00
0.00 0.00 0.00 0.00 0.00 0.00 0.00 0.00 0.00 0.00 0.00 0.00 0.00 0.00 0.00 0.00 0.00 0.00 0.00 0.00 0.00 0.00 0.00 0.00 0.00 0.00 0.00 0.00 0.00 0.00 0.00 0.00 0.00 0.00 0.00 0.00 0.00 0.00 0.00 0.00 0.00 0.00 0.00